This demonstration page uses our WeatherBlox Daily Observations layout. Learn more.

Left ArrowRight Arrow

39.12711, -84.51439

Hourly Observations for July 17, 2018

Temp ( °F °C ) Dew Point ( °F °C ) Humidity (%) Winds ( mph kmh ) Pressure ( in mb ) Visibility ( mi km ) Precip ( " mm )
12:53 am 00:53 Clear 74 23.3 73 22.8 97 97 Calm 29.92 1013 10 16 0.00 0.00
1:53 am 01:53 Clear 74 23.3 73 22.8 97 97 Calm 29.91 1013 10 16 0.00 0.00
2:53 am 02:53 Clear 76 24.4 71 21.7 85 85 WNW 7 11 29.91 1013 10 16 0.00 0.00
3:53 am 03:53 Clear 76 24.4 71 21.7 85 85 VRB 3 6 29.91 1013 10 16 0.00 0.00
4:53 am 04:53 Partly Cloudy 74 23.3 71 21.7 91 91 Calm 29.92 1013 10 16 0.00 0.00
5:53 am 05:53 Mostly Cloudy 72 22.2 71 21.7 97 97 Calm 29.93 1014 10 16 0.00 0.00
6:53 am 06:53 Mostly Cloudy 75 23.9 71 21.7 88 88 Calm 29.94 1014 10 16 0.00 0.00
7:53 am 07:53 Partly Cloudy 76 24.4 69 20.6 79 79 VRB 5 7 29.96 1015 10 16 0.00 0.00
8:53 am 08:53 Sunny 78 25.6 64 17.8 62 62 NNE 10 17 29.98 1015 10 16 0.00 0.00
9:53 am 09:53 Sunny 81 27.2 63 17.2 54 54 N 8 13 29.99 1016 10 16 0.00 0.00
10:53 am 10:53 Sunny 83 28.3 59 15 44 44 N 9 15 29.99 1016 10 16 0.00 0.00
11:53 am 11:53 Sunny 85 29.4 58 14.4 40 40 NNE 9 15 29.99 1016 10 16 0.00 0.00
12:53 pm 12:53 Sunny 87 30.6 57 13.9 36 36 N 10 17 29.99 1016 10 16 0.00 0.00
1:53 pm 13:53 Sunny 88 31.1 56 13.3 34 34 NNE 9 15 29.98 1015 10 16 0.00 0.00
2:53 pm 14:53 Sunny 89 31.7 56 13.3 33 33 VRB 6 9 29.97 1015 10 16 0.00 0.00
3:53 pm 15:53 Sunny 89 31.7 60 15.6 38 38 NE 14 22 29.97 1015 10 16 0.00 0.00
4:53 pm 16:53 Partly Cloudy 90 32.2 61 16.1 38 38 NNE 12 19 29.95 1014 10 16 0.00 0.00
5:53 pm 17:53 Partly Cloudy 88 31.1 59 15 38 38 NNW 15 24 29.95 1014 10 16 0.00 0.00
6:53 pm 18:53 Mostly Sunny 87 30.6 56 13.3 35 35 NNW 10 17 29.95 1014 10 16 0.00 0.00
7:53 pm 19:53 Sunny 85 29.4 56 13.3 37 37 NNW 10 17 29.96 1015 10 16 0.00 0.00
8:53 pm 20:53 Sunny 82 27.8 57 13.9 42 42 N 8 13 29.97 1015 10 16 0.00 0.00
9:53 pm 21:53 Clear 80 26.7 60 15.6 51 51 N 9 15 29.99 1016 10 16 0.00 0.00
10:53 pm 22:53 Clear 77 25 61 16.1 58 58 N 6 9 30.02 1017 10 16 0.00 0.00
11:53 pm 23:53 Clear 74 23.3 62 16.7 67 67 NNE 3 6 30.02 1017 10 16 0.00 0.00

Powered by AerisWeather